Terug naar catalogus

CZ-6A DEB

ActiefPO
NORAD 60879·DEBRIS·🇨🇳 China

Gelanceerd Aug 6, 2024 vanaf Taiyuan Satellite Launch Center

Loading…

Volgende Passages (komende 24 uur)

TLE

VersSource: Space-Track

Epoch: Sep 14, 2026, 00:41 UTC

1 60879U 24140KJ  26257.02890960  .00000647  00000-0  30262-3 0  9990
2 60879  89.0254 267.5889 0050044 258.1034 101.4541 14.18547239107526

Volg CZ-6A DEB in realtime met AllMySat

Download on the App Store